Victoria University, British Columbia

5:10 AM PDT on September 26, 2017 (GMT -0700)
Victoria University

Weather History for CWYJ - March, 2014

Change the Weather History Date:

Wednesday, March 19, 2014

  Actual Average (CYWH) Record (CYWH)
Temperature  
Mean Temperature 46 °F -  
Max Temperature 52 °F 50 °F 59 °F (1998)
Min Temperature 41 °F 41 °F 35 °F (2017)
Degree Days  
Heating Degree Days 18    
Moisture  
Dew Point 37 °F    
Average Humidity 74    
Maximum Humidity 100    
Minimum Humidity 38    
Precipitation  
Precipitation 0.12 in - - ()
Sea Level Pressure  
Sea Level Pressure 30.07 in    
Wind  
Wind Speed 4 mph ()    
Max Wind Speed 14 mph    
Max Gust Speed 28 mph    
Averages and records for this station are not official NWS values.
T = Trace of Precipitation, MM = Missing Value Source: Averaged Metar Reports

Daily Weather History Graph

Daily Weather History Graph

Search for Another Location

Airport or City:

Trip Planner

Search our weather history database for the weather conditions in past years. The results will help you decide how hot, cold, wet, or windy it might be!

Date:

Astronomy

Mar. 19, 2014 Rise Set
Actual Time 7:17 AM PDT 7:24 PM PDT
Civil Twilight 6:46 AM PDT 7:56 PM PDT
Nautical Twilight 6:10 AM PDT 8:32 PM PDT
Astronomical Twilight 5:32 AM PDT 9:10 PM PDT
Moon 11:06 PM PDT (3/19) 8:32 AM PDT (3/19)
Length of Visible Light 13h 09m
Length of Day
12h 06m
Waning Gibbous, 90% of the Moon is Illuminated
Mar 19
Waning Gibbous
Mar 23
Last Quarter
Mar 30
New
Apr 7
First Quarter
Apr 15
Full

Hourly Weather History & Observations

Time (PDT) Temp. Windchill Dew Point Humidity Pressure Visibility Wind Dir Wind Speed Gust Speed Precip Events Conditions
12:00 AM 43.9 °F - 42.3 °F 94% 30.16 in - Calm Calm - 0.02 in   Unknown
1:00 AM 41.9 °F - 42.1 °F 100% 30.14 in - South 2.3 mph - 0.01 in   Unknown
2:00 AM 43.9 °F - 42.4 °F 95% 30.12 in - South 2.3 mph - N/A   Unknown
3:00 AM 44.1 °F 42.5 °F 42.8 °F 95% 30.10 in - SSW 3.5 mph - N/A   Unknown
4:00 AM 44.1 °F - 42.8 °F 95% 30.06 in - SSW 2.3 mph - 0.01 in   Unknown
5:00 AM 44 °F - 43 °F 93% 30.06 in - SSW 2.3 mph - -  
5:00 AM 44.4 °F - 42.6 °F 93% 30.06 in - SSW 2.3 mph - 0.01 in   Unknown
6:00 AM 44.2 °F - 42.4 °F 93% 30.04 in - South 2.3 mph - N/A   Unknown
7:00 AM 44.2 °F 42.7 °F 42.8 °F 95% 30.03 in - South 3.5 mph - N/A   Unknown
8:00 AM 44.6 °F 43.1 °F 43.0 °F 94% 30.01 in - South 3.5 mph - 0.02 in   Unknown
9:00 AM 44.6 °F 41.4 °F 42.8 °F 93% 30.01 in - SW 5.8 mph - 0.05 in   Unknown
10:00 AM 43.5 °F 39.4 °F 40.3 °F 88% 30.01 in - SW 6.9 mph - 0.04 in   Unknown
11:00 AM 45 °F - 41 °F 80% 30.01 in - WSW 9.2 mph - -  
11:00 AM 45.1 °F 40.3 °F 40.8 °F 85% 30.01 in - WSW 9.2 mph 18.4 mph N/A   Unknown
12:00 PM 49.8 °F - 40.3 °F 70% 30.01 in - West 8.1 mph - N/A   Unknown
1:00 PM 51.4 °F - 33.8 °F 51% 30.01 in - WSW 9.2 mph 17.3 mph N/A   Unknown
2:00 PM 50.7 °F - 27.9 °F 41% 30.01 in - West 13.8 mph 27.6 mph N/A   Unknown
3:00 PM 52.0 °F - 31.8 °F 46% 30.03 in - West 10.4 mph 20.7 mph N/A   Unknown
4:00 PM 49.3 °F - 31.3 °F 50% 30.04 in - West 9.2 mph 18.4 mph N/A   Unknown
5:00 PM 49 °F - 31 °F 38% 30.06 in - WSW 11.5 mph - -  
5:00 PM 48.6 °F - 32.9 °F 55% 30.06 in - WSW 11.5 mph 23.0 mph N/A   Unknown
6:00 PM 46.4 °F 41.5 °F 31.5 °F 56% 30.08 in - West 10.4 mph 20.7 mph N/A   Unknown
7:00 PM 41.9 °F 36.9 °F 31.5 °F 66% 30.11 in - West 8.1 mph 18.4 mph N/A   Unknown
8:00 PM 42.6 °F 39.0 °F 31.5 °F 65% 30.12 in - West 5.8 mph - N/A   Unknown
9:00 PM 41.9 °F 36.3 °F 31.3 °F 66% 30.13 in - WSW 9.2 mph - N/A   Unknown
10:00 PM 41.2 °F 38.2 °F 32.9 °F 72% 30.15 in - West 4.6 mph - N/A   Unknown
11:00 PM 42 °F - 30 °F 52% 30.16 in - West 6.9 mph - -  
11:00 PM 41.5 °F 37.1 °F 30.4 °F 65% 30.16 in - West 6.9 mph - N/A   Unknown